Miscellaneous Local Product
Issued by NWS Hastings, NE

Home | Current Version | Previous Version | Graphics & Text | Print | Product List | Glossary On
Versions: 1 2 3 4 5 6 7 8 9 10 11 12 13 14 15 16 17 18 19 20 21 22 23 24 25 26 27 28 29 30 31 32 33 34 35 36 37 38 39 40 41 42 43 44 45 46 47 48 49 50
000
AXUS43 KGID 012202
MISGRI

GID CWA HOURLY WEATHER ROUNDUP
NATIONAL WEATHER SERVICE HASTINGS NE
500 PM CDT MON JUN 01 2015

NOTE: "FAIR" INDICATES FEW OR NO CLOUDS BELOW 12,000 FEET WITH NO
SIGNIFICANT WEATHER AND/OR OBSTRUCTIONS TO VISIBILITY.

...SOUTH CENTRAL NEBRASKA...

CITY           SKY/WX    TMP DP  RH WIND       PRES   REMARKS
GRAND ISLAND   PTSUNNY   76  56  49 S16       30.03F
HASTINGS       CLOUDY    73  57  57 S10G24    30.04F
KEARNEY        CLOUDY    72  57  60 S17G24    30.04S
ORD            MOSUNNY   77  57  50 SE16G25   29.99F
YORK           SUNNY     77  50  38 S17       30.05F
AURORA         MOSUNNY   78  53  42 S15       30.04F
LEXINGTON      SUNNY     74  62  66 SE18      30.01F
HOLDREGE       PTSUNNY   73  59  61 SE20      30.03F
HEBRON         MOSUNNY   76  52  42 SE13      30.06F

...NEBRASKA PANHANDLE...

CITY           SKY/WX    TMP DP  RH WIND       PRES   REMARKS
CHADRON        SUNNY     84  61  45 S16       29.86F
ALLIANCE       MOSUNNY   80  61  52 S22G28    29.94F
SCOTTSBLUFF    PTSUNNY   80  57  45 SE9       29.91F
SIDNEY         MOSUNNY   82  57  42 SE15G24   29.97F

...WESTERN AND NORTH CENTRAL NEBRASKA...

CITY           SKY/WX    TMP DP  RH WIND       PRES   REMARKS
VALENTINE      SUNNY     83  59  44 S21G30    29.92F
AINSWORTH      SUNNY     80  62  54 S17G24    29.96F
ONEILL         MOSUNNY   78  60  53 S17G24    30.00S
BROKEN BOW     MOSUNNY   76  60  57 S20G28    30.00F
IMPERIAL       SUNNY     81  61  50 SE20G25   29.96F
NORTH PLATTE   SUNNY     77  62  59 SE10      29.98F
MCCOOK         MOSUNNY   82  61  48 S18G26    29.97F

...EASTERN NEBRASKA...

CITY           SKY/WX    TMP DP  RH WIND       PRES   REMARKS
NORFOLK        SUNNY     79  53  40 SE18G25   30.02F
SO SIOUX CITY  SUNNY     77  50  38 S14G22    30.05F
TEKAMAH        SUNNY     78  51  38 SE13G22   30.06F
COLUMBUS       SUNNY     79  52  38 SE13G20   30.05F
ALBION         MOSUNNY   77  54  44 S15G21    30.02F
OMAHA EPPLEY   MOSUNNY   74  52  46 SE14G21   30.08F
OFFUTT AFB     SUNNY     74  54  48 SE10      30.07F
MILLARD        SUNNY     73  54  49 SE12G17   30.08F
LINCOLN        SUNNY     76  55  48 SE14      30.06F
NEBRASKA CITY  SUNNY     72  48  43 S10       30.10F
BEATRICE       SUNNY     74  55  52 SE15G22   30.07F
FALLS CITY     SUNNY     73  53  49 E9        30.09F

...NORTHERN KANSAS...

CITY           SKY/WX    TMP DP  RH WIND       PRES   REMARKS
GOODLAND       SUNNY     83  59  44 S16G24    29.98F
HILL CITY      PTSUNNY   79  62  56 SE14G23   29.99F
NORTON         PTCLDY    79  57  47 SE16      29.99F
PHILLIPSBURG   MOSUNNY   79  63  57 SE17      30.01F
SMITH CENTER   CLOUDY    72  61  68 SE17      30.05S
HAYS           PTSUNNY   79  61  53 SE17G24   30.01F
RUSSELL        CLOUDY    75  62  64 SE16      30.02F
CONCORDIA      PTSUNNY   75  57  53 SE14      30.05F
SALINA         CLOUDY    76  58  53 SE16      30.05F
TOPEKA         MOSUNNY   71  56  58 E8        30.11F



USA.gov is the U.S. government's official web portal to all federal, state and local government web resources and services.